Location: Lancaster
(54.0470°N, 2.8020°W)
Time: 20:54:05
(UTC+01:00)

COSMOS 2428 - Visible Passes

Search period start: 30 September 2014 00:00
Search period end: 10 October 2014 00:00
Orbit: 844 x 858 km, 71.0° (Epoch: 30 September)

Date Brightness Start Highest point End Pass type
(mag) Time Alt. Az. Time Alt. Az. Time Alt. Az.
30 Sep 4.6 00:51:54 25° NNE 00:51:54 25° NNE 00:54:14 10° NNE visible
30 Sep 4.5 02:33:54 24° NNW 02:33:54 24° NNW 02:38:22 10° NNE visible
30 Sep 5.1 04:17:07 10° NW 04:20:14 15° N 04:23:21 10° NNE visible
30 Sep 5.0 06:02:45 10° NNW 06:06:52 20° NNE 06:10:58 10° ENE visible
01 Oct 4.7 00:39:52 23° NNE 00:39:52 23° NNE 00:41:59 10° NNE visible
01 Oct 4.6 02:21:52 24° NNW 02:21:52 24° NNW 02:26:06 10° NNE visible
01 Oct 5.1 04:04:52 10° NW 04:07:59 15° N 04:11:06 10° NNE visible
01 Oct 5.0 05:50:29 10° NNW 05:54:36 20° NNE 05:58:43 10° ENE visible
02 Oct 4.8 00:27:50 22° NNE 00:27:50 22° NNE 00:29:44 10° NNE visible
02 Oct 4.6 02:09:50 24° NNW 02:09:50 24° NNW 02:13:51 10° NNE visible
02 Oct 5.2 03:52:37 10° NW 03:55:43 15° N 03:58:51 10° NNE visible
02 Oct 5.0 05:38:14 10° NNW 05:42:21 20° NNE 05:46:28 10° ENE visible
03 Oct 4.8 00:15:47 20° NNE 00:15:47 20° NNE 00:17:28 10° NNE visible
03 Oct 4.7 01:57:47 23° NNW 01:57:47 23° NNW 02:01:36 10° NNE visible
03 Oct 5.2 03:40:21 10° NW 03:43:28 15° N 03:46:35 10° NNE visible
03 Oct 5.0 05:25:59 10° NNW 05:30:06 20° NNE 05:34:12 10° ENE visible
04 Oct 4.9 00:03:44 19° NNE 00:03:44 19° NNE 00:05:13 10° NNE visible
04 Oct 4.7 01:45:44 23° NNW 01:45:44 23° NNW 01:49:21 10° NNE visible
04 Oct 5.2 03:28:06 10° NW 03:31:13 15° N 03:34:20 10° NNE visible
04 Oct 5.0 05:13:44 10° NNW 05:17:50 20° NNE 05:21:57 10° ENE visible
04 Oct 5.0 23:51:41 17° NNE 23:51:41 17° NNE 23:52:58 10° NNE visible
05 Oct 4.8 01:33:41 22° NNW 01:33:41 22° NNW 01:37:06 10° NNE visible
05 Oct 5.2 03:15:50 10° NW 03:18:57 15° N 03:22:05 10° NNE visible
05 Oct 5.0 05:01:28 10° NNW 05:05:35 20° NNE 05:09:41 10° ENE visible
05 Oct 5.0 23:39:37 16° NNE 23:39:37 16° NNE 23:40:43 10° NNE visible
06 Oct 4.8 01:21:37 22° N 01:21:37 22° N 01:24:50 10° NNE visible
06 Oct 5.3 03:03:37 10° NW 03:06:42 15° N 03:09:49 10° NNE visible
06 Oct 5.1 04:49:13 10° NNW 04:53:20 20° NNE 04:57:26 10° ENE visible
06 Oct 3.7 06:33:23 10° NNW 06:38:59 50° NE 06:44:33 10° SE visible
06 Oct 5.1 23:27:33 15° NNE 23:27:33 15° NNE 23:28:27 10° NNE visible
07 Oct 4.9 01:09:33 21° N 01:09:33 21° N 01:12:35 10° NNE visible
07 Oct 5.3 02:51:33 11° NW 02:54:26 15° N 02:57:34 10° NNE visible
07 Oct 5.1 04:36:57 10° NNW 04:41:04 20° NNE 04:45:10 10° ENE visible
07 Oct 3.7 06:21:07 10° NNW 06:26:43 50° NE 06:32:17 10° SE visible
07 Oct 5.1 23:15:29 14° NNE 23:15:29 14° NNE 23:16:12 10° NNE visible
08 Oct 4.9 00:57:29 21° N 00:57:29 21° N 01:00:19 10° NNE visible
08 Oct 5.3 02:39:29 11° NNW 02:42:11 15° N 02:45:18 10° NNE visible
08 Oct 5.1 04:24:42 10° NNW 04:28:48 20° NNE 04:32:55 10° ENE visible
08 Oct 3.7 06:08:52 10° NNW 06:14:28 50° NE 06:20:02 10° SE visible
08 Oct 5.2 23:03:25 13° NNE 23:03:25 13° NNE 23:03:56 10° NNE visible
09 Oct 5.0 00:45:25 20° N 00:45:25 20° N 00:48:04 10° NNE visible
09 Oct 5.3 02:27:25 12° NNW 02:29:55 15° N 02:33:03 10° NNE visible
09 Oct 5.1 04:12:26 10° NNW 04:16:33 20° NNE 04:20:39 10° ENE visible
09 Oct 3.6 05:56:36 10° NNW 06:02:12 50° NE 06:07:46 10° SE visible
09 Oct 5.2 22:51:21 12° NNE 22:51:21 12° NNE 22:51:40 10° NNE visible
